• Join FlightAware (Why Join?)
  • Login
  • US Flag 
10:32AM EDT


 

Airport Tracker/Info


-or-


 

Live Flight TrackerFlight Track Log ✈ AAY220 ✈ 11-Oct-2013 ✈ KBLI - KLAS

Flight Track Log - Related Links

Times and Time Zones

All times are in EDT time to prevent confusion due to time zone crossing. See the AAY220 flight status page for this flight to view local times or setup timezone preferences in your user account.

Time Position Orientation Groundspeed Altitude Reporting Facility
EDT Latitude Longitude Course Direction KTS MPH feet Rate Location/Type
11:13AM 48.7403 -122.5517 155° Southeast 209 241 2,400  Level Seattle Center
11:14AM 48.6667 -122.5667 188° South 210 242 4,600 2,880 Climbing Vancouver Center
11:15AM 48.0220 -121.9818 154° Southeast  Level Estimated
11:15AM 48.5833 -122.5833 188° South 260 299 7,800  Level Vancouver Center
11:16AM 47.9117 -121.9038 155° Southeast  Level Estimated
11:16AM 48.5153 -122.6297 204° Southwest 284 327 10,700  Level Seattle Center
11:17AM 47.8014 -121.8261 155° Southeast  Level Estimated
11:17AM 48.4289 -122.6572 192° South 308 354 13,000  Level Seattle Center
11:18AM 47.6909 -121.7487 155° Southeast  Level Estimated
11:18AM 48.3322 -122.6406 173° South 349 402 15,300  Level Seattle Center
11:19AM 47.5805 -121.6717 155° Southeast  Level Estimated
11:19AM 48.2342 -122.5967 163° South 372 428 16,900  Level Seattle Center
11:20AM 48.1281 -122.5581 166° South 388 447 18,700 1,680 Climbing Seattle Center
11:21AM 48.0178 -122.5211 167° South 395 455 20,400 1,620 Climbing Seattle Center
11:23AM 47.9019 -122.4772 166° South 412 474 22,000 1,380 Climbing Seattle Center
11:24AM 47.7822 -122.4342 166° South 428 493 23,300 1,380 Climbing Seattle Center
11:25AM 47.6561 -122.3900 167° South 469 540 24,900 1,620 Climbing Seattle Center
11:26AM 47.5203 -122.3400 166° South 462 532 26,600 1,320 Climbing Seattle Center
11:27AM 47.3944 -122.2958 167° South 466 536 27,600 1,080 Climbing Seattle Center
11:28AM 47.2669 -122.2425 164° South 475 547 28,800 1,200 Climbing Seattle Center
11:29AM 47.1372 -122.1919 165° South 481 554 30,100 1,080 Climbing Seattle Center
11:30AM 47.0092 -122.1419 165° South 480 552 31,000 420 Climbing Seattle Center
11:31AM 46.8758 -122.0914 165° South 495 570 31,000 540 Level Seattle Center
11:32AM 46.7464 -122.0383 164° South 487 560 32,100 960 Climbing Seattle Center
11:33AM 46.6181 -121.9883 165° South 479 551 33,000 420 Climbing Seattle Center
11:34AM 46.4908 -121.9394 165° South 474 545 33,000  Level Seattle Center
11:35AM 46.3644 -121.8917 165° South 470 541 33,000  Level Seattle Center
11:36AM 46.2375 -121.8422 165° South 471 542 33,000  Level Seattle Center
11:37AM 46.0994 -121.7894 165° South 474 545 33,000  Level Seattle Center
11:38AM 45.9711 -121.7428 166° South 477 549 33,000  Level Seattle Center
11:39AM 45.8453 -121.6931 165° South 473 544 33,000  Level Seattle Center
11:40AM 45.7175 -121.6453 165° South 474 545 33,000  Level Seattle Center
11:41AM 45.5897 -121.5989 166° South 475 547 33,000  Level Seattle Center
11:42AM 45.4614 -121.5511 165° South 477 549 33,000  Level Seattle Center
11:43AM 45.3072 -121.4933 165° South 479 551 33,000  Level Seattle Center
11:44AM 45.1789 -121.4464 166° South 479 551 33,000  Level Seattle Center
11:45AM 45.0514 -121.3992 165° South 478 550 33,000  Level Seattle Center
11:46AM 44.9228 -121.3528 166° South 480 552 33,000  Level Seattle Center
11:47AM 44.7933 -121.3061 166° South 482 555 33,000  Level Seattle Center
11:48AM 44.6647 -121.2586 165° South 481 554 33,000  Level Seattle Center
11:49AM 44.5383 -121.2147 166° South 481 554 33,000  Level Seattle Center
11:50AM 44.4083 -121.1672 165° South 481 554 33,000  Level Seattle Center
11:51AM 44.2778 -121.1200 165° South 481 554 33,000  Level Seattle Center
11:52AM 44.1461 -121.0750 166° South 486 559 33,000  Level Seattle Center
11:53AM 44.0172 -121.0292 166° South 483 556 33,000  Level Seattle Center
11:54AM 43.8619 -120.9744 166° South 482 555 33,000  Level Seattle Center
11:55AM 43.7322 -120.9303 166° South 483 556 33,000  Level Seattle Center
11:56AM 43.6033 -120.8833 165° South 481 554 33,000  Level Seattle Center
11:57AM 43.4853 -120.8453 167° South 485 558 33,000  Level Seattle Center
11:58AM 43.3539 -120.8011 166° South 486 559 33,000  Level Seattle Center
11:59AM 43.2217 -120.7544 166° South 488 562 33,000  Level Seattle Center
12:00PM 43.0894 -120.7092 166° South 488 562 33,000  Level Seattle Center
12:01PM 42.9322 -120.6567 166° South 485 558 33,000  Level Seattle Center
12:02PM 42.8000 -120.6114 166° South 488 562 33,000  Level Seattle Center
12:03PM 42.6708 -120.5694 167° South 480 552 33,000  Level Seattle Center
12:04PM 42.5386 -120.5247 166° South 488 562 33,000  Level Seattle Center
12:05PM 42.4069 -120.4819 167° South 486 559 33,000  Level Seattle Center
12:06PM 42.2761 -120.4444 168° South 481 554 33,000  Level Seattle Center
12:07PM 42.1442 -120.4042 167° South 484 557 33,000  Level Seattle Center
12:08PM 42.0136 -120.3647 167° South 482 555 33,000  Level Seattle Center
12:09PM 41.8808 -120.3253 168° South 485 558 33,000  Level Seattle Center
12:10PM 41.7489 -120.2886 168° South 485 558 33,000  Level Seattle Center
12:11PM 41.6164 -120.2481 167° South 487 560 33,000  Level Seattle Center
12:12PM 41.4844 -120.2108 168° South 484 557 33,000  Level Seattle Center
12:13PM 41.3536 -120.1719 167° South 483 556 33,000  Level Seattle Center
12:14PM 41.2211 -120.1331 168° South 486 559 33,000  Level Seattle Center
12:15PM 41.0894 -120.0958 168° South 485 558 33,000  Level Seattle Center
12:16PM 40.9314 -120.0511 168° South 484 557 33,000  Level Seattle Center
12:17PM 40.7989 -120.0125 168° South 487 560 33,000  Level Seattle Center
12:18PM 40.6681 -119.9744 168° South 485 558 33,000  Level Seattle Center
12:19PM 40.5394 -119.9383 168° South 481 554 33,000  Level Oakland Center
12:20PM 40.4089 -119.9017 168° South 481 554 33,000  Level Oakland Center
12:21PM 40.2792 -119.8656 168° South 477 549 33,000  Level Oakland Center
12:22PM 40.1500 -119.8294 168° South 478 550 33,000  Level Oakland Center
12:23PM 40.0206 -119.7922 168° South 479 551 33,000  Level Oakland Center
12:24PM 39.8903 -119.7561 168° South 479 551 33,000  Level Oakland Center
12:25PM 39.7583 -119.7206 168° South 483 556 33,000  Level Oakland Center
12:26PM 39.6297 -119.6844 168° South 478 550 33,000  Level Oakland Center
12:27PM 39.4892 -119.6053 157° South 477 549 33,100  Climbing Oakland Center
12:28PM 39.3956 -119.4844 135° Southeast 478 550 33,000 -60 Descending Oakland Center
12:30PM 39.3017 -119.3656 136° Southeast 476 548 33,000  Level Oakland Center
12:31PM 39.2067 -119.2467 136° Southeast 479 551 33,000  Level Oakland Center
12:32PM 39.1114 -119.1272 136° Southeast 481 554 33,000  Level Oakland Center
12:33PM 39.0158 -119.0067 136° Southeast 484 557 33,000  Level Oakland Center
12:34PM 38.9003 -118.8639 136° Southeast 485 558 33,000  Level Oakland Center
12:35PM 38.8036 -118.7442 136° Southeast 487 560 33,000  Level Oakland Center
12:36PM 38.7075 -118.6247 136° Southeast 484 557 33,000  Level Oakland Center
12:37PM 38.6100 -118.5053 136° Southeast 486 559 33,000  Level Oakland Center
12:38PM 38.5122 -118.3858 136° Southeast 487 560 33,000  Level Oakland Center
12:39PM 38.4133 -118.2672 137° Southeast 489 563 33,000  Level Oakland Center
12:40PM 38.3178 -118.1475 135° Southeast 485 558 33,000  Level Oakland Center
12:41PM 38.2117 -118.0200 137° Southeast 486 559 33,000  Level Oakland Center
12:42PM 38.1139 -117.9022 137° Southeast 485 558 33,000  Level Oakland Center
12:43PM 38.0156 -117.7847 137° Southeast 489 563 33,000  Level Oakland Center
12:44PM 37.8842 -117.6689 145° Southeast 489 563 33,000  Level Oakland Center
12:45PM 37.7731 -117.5711 145° Southeast 489 563 33,000  Level Oakland Center
12:46PM 37.6628 -117.4764 146° Southeast 483 556 33,000  Level Oakland Center
12:47PM 37.5692 -117.4206 155° Southeast 485 558 33,000  Level Los Angeles Center
12:48PM 37.4394 -117.3097 146° Southeast 472 543 33,000  Level Los Angeles Center
12:49PM 37.3350 -117.2075 142° Southeast 474 545 33,000  Level Oakland Center
12:50PM 37.2247 -117.1094 145° Southeast 486 559 33,000  Level Oakland Center
12:51PM 37.1136 -117.0139 146° Southeast 485 558 33,000 -240 Level Los Angeles Center
12:52PM 37.0025 -116.9183 146° Southeast 485 558 32,600 -480 Descending Los Angeles Center
12:53PM 36.8919 -116.8250 146° Southeast 481 554 32,000 -960 Descending Los Angeles Center
12:54PM 36.7667 -116.7011 142° Southeast 483 556 30,700 -1,560 Descending Los Angeles Center
12:55PM 36.6814 -116.5783 131° Southeast 470 541 28,800 -1,800 Descending Los Angeles Center
12:56PM 36.6000 -116.4597 131° Southeast 456 525 27,000 -1,680 Descending Los Angeles Center
12:57PM 36.5217 -116.3511 132° Southeast 438 504 25,400 -1,500 Descending Los Angeles Center
12:58PM 36.4194 -116.2075 131° Southeast 414 476 23,600 -1,440 Descending Los Angeles Center
12:59PM 36.4042 -116.1856 131° Southeast 410 472 23,300 -1,440 Descending Los Angeles Center
12:59PM 36.3619 -116.1236 130° Southeast 396 456 22,500 -1,380 Descending Los Angeles Center
01:00PM 36.3283 -116.0792 133° Southeast 389 448 21,900 -1,260 Descending Los Angeles Center
01:00PM 36.2917 -116.0275 131° Southeast 381 438 21,200 -1,680 Descending Los Angeles Center
01:01PM 36.2608 -115.9836 131° Southeast 379 436 20,200 -3,060 Descending Los Angeles Center
01:01PM 36.2161 -115.9217 132° Southeast 384 442 18,000 -3,660 Descending Los Angeles Center
01:02PM 36.1914 -115.8781 125° Southeast 398 458 16,500 -2,460 Descending Los Angeles Center
01:02PM 36.1681 -115.8008 111° Southeast 388 447 15,500 -1,320 Descending Los Angeles Center
01:03PM 36.1550 -115.7569 110° East 368 423 15,200 -720 Descending Los Angeles Center
01:03PM 36.1333 -115.6842 110° East 330 380 14,800 -600 Descending Los Angeles Center
01:04PM 36.1211 -115.6481 113° Southeast 310 357 14,600 -1,020 Descending Los Angeles Center
01:04PM 36.1011 -115.5933 114° Southeast 293 337 13,800 -1,320 Descending Los Angeles Center
01:05PM 36.0892 -115.5600 114° Southeast 281 323 13,300 -1,260 Descending Los Angeles Center
01:05PM 36.0739 -115.5092 110° East 273 314 12,500 -1,200 Descending Los Angeles Center
01:06PM 36.0653 -115.4775 109° East 265 305 12,100 -1,200 Descending Los Angeles Center
01:06PM 36.0486 -115.4289 113° Southeast 259 298 11,300 -1,500 Descending Los Angeles Center
01:07PM 36.0364 -115.3939 113° Southeast 250 288 10,600 -1,500 Descending Los Angeles Center
01:08PM 36.0286 -115.3503 102° East 249 287 9,800 -1,500 Descending Los Angeles Center
01:08PM 36.0272 -115.3119 93° East 251 289 9,100 -780 Descending Los Angeles Center
01:09PM 36.0211 -115.2494 97° East 247 284 9,000 -300 Descending Los Angeles Center
01:09PM 36.0203 -115.2292 93° East 245 282 8,800 -600 Descending Los Angeles Center
01:10PM 36.0142 -115.1658 97° East 246 283 8,400 -600 Descending Los Angeles Center
01:10PM 36.0144 -115.1433 89° East 245 282 8,200 -420 Descending Los Angeles Center
01:11PM 36.0103 -115.0847 95° East 241 277 8,000 -420 Descending Los Angeles Center
01:11PM 36.0103 -115.0650 90° East 198 228 7,800 -1,020 Descending Los Angeles Center
01:12PM 36.0050 -115.0178 98° East 208 239 7,000 -1,200 Descending Los Angeles Center
01:12PM 36.0044 -114.9978 92° East 198 228 6,600 -1,020 Descending Los Angeles Center
01:13PM 36.0019 -114.9514 94° East 200 230 6,000 -600 Descending Los Angeles Center
01:13PM 36.0008 -114.9325 94° East 190 219 6,000 -120 Level Los Angeles Center
01:14PM 35.9975 -114.8733 94° East 194 223 5,900 -240 Descending Los Angeles Center
01:14PM 36.0033 -114.8650 49° Northeast 193 222 5,800 -720 Descending Los Angeles Center
01:15PM 36.0394 -114.8589 North 195 224 5,200 -840 Descending Los Angeles Center
01:15PM 36.0503 -114.8628 344° North 182 209 5,000 -1,200 Descending Los Angeles Center
01:16PM 36.0686 -114.9017 300° West 183 211 4,000 -1,140 Descending Los Angeles Center
01:16PM 36.0708 -114.9169 280° West 177 204 3,900 -180 Descending Los Angeles Center
01:17PM 36.0733 -114.9775 273° West 177 204 3,800 -120 Descending Los Angeles Center
01:18PM 36.0742 -115.0222 271° West 175 201 3,700 -300 Descending Los Angeles Center
01:18PM 36.0733 -115.0361 266° West 170 196 3,500 -900 Descending Los Angeles Center
01:19PM 36.0725 -115.0747 268° West 164 189 2,800 -900 Descending Los Angeles Center
01:19PM 36.0739 -115.0892 277° West 150 173 2,600 -780 Descending Los Angeles Center
01:20PM 36.0733 -115.1339 269° West 150 173 2,000 -660 Descending Los Angeles Center